GW6410 Weather Reports


Display with metric or nautical units.
time (UTC)temp
F
wind
direction
speed
MPH
gust
MPH
rain 1hr
in
rain 24hr
in
rain mn
in
humidity
%
barometer
mb
20260505211009 80 105 2.0 5.0 0.00 0.00 0.00 39 1014.4
20260505210510 80 226 3.0 10.0 0.00 0.00 0.00 39 1014.4
20260505210026 79 119 3.0 13.0 0.00 0.00 0.00 39 1014.4
20260505205508 80 119 3.0 13.0 0.00 0.00 0.00 39 1014.5
20260505205007 80 276 2.0 6.0 0.00 0.00 0.00 41 1014.5
20260505204513 80 248 1.0 9.0 0.00 0.00 0.00 40 1014.5
20260505204006 80 221 3.0 9.0 0.00 0.00 0.00 39 1014.7
20260505203505 81 219 3.0 8.0 0.00 0.00 0.00 39 1014.6
20260505203026 81 131 2.0 9.0 0.00 0.00 0.00 39 1014.6
20260505202505 81 134 4.0 9.0 0.00 0.00 0.00 38 1014.7
20260505202009 81 230 2.0 8.0 0.00 0.00 0.00 39 1014.9
20260505201520 80 162 2.0 8.0 0.00 0.00 0.00 40 1014.9
20260505201005 80 214 1.0 5.0 0.00 0.00 0.00 40 1014.9
20260505200509 80 199 2.0 5.0 0.00 0.00 0.00 40 1015.0
20260505200026 80 267 1.0 6.0 0.00 0.00 0.00 41 1015.0
20260505195507 80 177 2.0 6.0 0.00 0.00 0.00 40 1015.2
20260505195009 80 163 2.0 6.0 0.00 0.00 0.00 40 1015.1
20260505194529 79 115 3.0 6.0 0.00 0.00 0.00 41 1015.1
20260505194011 79 250 2.0 6.0 0.00 0.00 0.00 43 1015.1
20260505193502 79 281 2.0 6.0 0.00 0.00 0.00 40 1015.4
20260505193014 79 141 3.0 6.0 0.00 0.00 0.00 39 1015.4
20260505192506 80 230 2.0 6.0 0.00 0.00 0.00 39 1015.3
20260505192012 80 138 2.0 6.0 0.00 0.00 0.00 40 1015.4
20260505191520 80 111 2.0 6.0 0.00 0.00 0.00 40 1015.4
20260505191009 79 174 1.0 12.0 0.00 0.00 0.00 43 1015.5
20260505190512 78 127 5.0 12.0 0.00 0.00 0.00 40 1015.8
20260505190032 79 84 2.0 10.0 0.00 0.00 0.00 40 1015.9
20260505185507 79 224 4.0 10.0 0.00 0.00 0.00 39 1015.8
20260505185009 79 130 4.0 10.0 0.00 0.00 0.00 41 1015.9
20260505184526 80 112 3.0 9.0 0.00 0.00 0.00 40 1015.8
20260505184009 80 162 4.0 9.0 0.00 0.00 0.00 39 1016.0
20260505183513 79 106 3.0 8.0 0.00 0.00 0.00 41 1016.1
20260505183031 79 281 2.0 9.0 0.00 0.00 0.00 40 1016.2
20260505182509 78 198 3.0 9.0 0.00 0.00 0.00 41 1016.2
20260505182008 78 219 1.0 10.0 0.00 0.00 0.00 40 1016.3
20260505181515 78 141 3.0 11.0 0.00 0.00 0.00 41 1016.3
20260505181006 78 184 4.0 11.0 0.00 0.00 0.00 41 1016.4
20260505180508 79 164 3.0 9.0 0.00 0.00 0.00 41 1016.6
20260505180021 79 160 3.0 7.0 0.00 0.00 0.00 40 1016.6
20260505175505 79 145 3.0 9.0 0.00 0.00 0.00 39 1016.5
20260505175014 78 310 3.0 9.0 0.00 0.00 0.00 39 1016.4
20260505174523 78 133 2.0 10.0 0.00 0.00 0.00 42 1016.6
20260505174012 78 187 3.0 10.0 0.00 0.00 0.00 40 1016.6
20260505173509 78 150 3.0 8.0 0.00 0.00 0.00 42 1016.6
20260505173036 78 26 3.0 6.0 0.00 0.00 0.00 43 1016.7
20260505172511 78 208 2.0 6.0 0.00 0.00 0.00 44 1016.8
20260505172015 78 101 2.0 6.0 0.00 0.00 0.00 43 1016.6
20260505171542 77 137 3.0 6.0 0.00 0.00 0.00 44 1016.6
20260505171010 76 174 1.0 11.0 0.00 0.00 0.00 45 1016.5
20260505170509 77 145 4.0 11.0 0.00 0.00 0.00 40 1016.7
20260505170020 76 141 2.0 9.0 0.00 0.00 0.00 45 1017.0
20260505165509 77 233 3.0 9.0 0.00 0.00 0.00 44 1017.0
20260505165008 77 121 3.0 9.0 0.00 0.00 0.00 45 1017.0
20260505164519 77 169 3.0 9.0 0.00 0.00 0.00 42 1016.9
20260505164009 77 256 3.0 7.0 0.00 0.00 0.00 41 1017.2
20260505163510 77 148 2.0 6.0 0.00 0.00 0.00 48 1017.1
20260505163024 76 229 3.0 9.0 0.00 0.00 0.00 45 1017.3
20260505163009 76 231 3.0 9.0 0.00 0.00 0.00 45 1017.3
20260505162503 76 134 5.0 10.0 0.00 0.00 0.00 45 1017.4
20260505162003 76 236 2.0 10.0 0.00 0.00 0.00 47 1017.3
20260505161506 76 255 4.0 9.0 0.00 0.00 0.00 47 1017.3
20260505161003 76 101 2.0 8.0 0.00 0.00 0.00 47 1017.2
20260505160506 75 171 2.0 8.0 0.00 0.00 0.00 47 1017.4
20260505153004 74 136 2.0 4.0 0.00 0.00 0.00 53 1017.4
20260505152504 73 204 2.0 5.0 0.00 0.00 0.00 56 1017.5
20260505152004 72 182 2.0 5.0 0.00 0.00 0.00 56 1017.6
20260505151504 72 136 1.0 5.0 0.00 0.00 0.00 56 1017.5
20260505151003 72 164 1.0 5.0 0.00 0.00 0.00 57 1017.5
20260505150507 72 335 1.0 4.0 0.00 0.00 0.00 62 1017.3
20260505140504 64 264 0.0 3.0 0.00 0.00 0.00 69 1017.4
20260505125004 55 149 0.0 0.0 0.00 0.00 0.00 85 1016.7
20260505124510 54 149 0.0 0.0 0.00 0.00 0.00 86 1016.7
20260505124006 53 149 0.0 0.0 0.00 0.00 0.00 88 1016.6
20260505123504 53 149 0.0 0.0 0.00 0.00 0.00 89 1016.6
20260505123013 52 149 0.0 0.0 0.00 0.00 0.00 90 1016.7
20260505122503 51 149 0.0 0.0 0.00 0.00 0.00 90 1016.8
20260505122007 51 149 0.0 0.0 0.00 0.00 0.00 90 1016.6
20260505121515 50 149 0.0 0.0 0.00 0.00 0.00 90 1016.6
20260505121009 50 149 0.0 0.0 0.00 0.00 0.00 90 1016.4
20260505120505 49 149 0.0 0.0 0.00 0.00 0.00 90 1016.4
20260505120048 49 149 0.0 0.0 0.00 0.00 0.00 90 1016.4
20260505115508 48 149 0.0 0.0 0.00 0.00 0.00 90 1016.4
20260505115010 48 149 0.0 0.0 0.00 0.00 0.00 90 1016.3
20260505114526 48 149 0.0 0.0 0.00 0.00 0.00 89 1016.2
20260505114010 48 149 0.0 0.0 0.00 0.00 0.00 89 1016.1
20260505113505 48 149 0.0 0.0 0.00 0.00 0.00 89 1016.1
20260505113010 48 149 0.0 0.0 0.00 0.00 0.00 89 1016.0
20260505112503 48 149 0.0 0.0 0.00 0.00 0.00 89 1016.1
20260505112004 48 149 0.0 0.0 0.00 0.00 0.00 89 1016.0
20260505111512 48 149 0.0 0.0 0.00 0.00 0.00 89 1015.9
20260505111009 48 149 0.0 1.0 0.00 0.00 0.00 89 1015.8
20260505110507 48 148 0.0 1.0 0.00 0.00 0.00 89 1015.8
20260505102008 47 323 0.0 0.0 0.00 0.00 0.00 89 1015.8
20260505101519 47 323 0.0 0.0 0.00 0.00 0.00 89 1015.8
20260505101005 47 323 0.0 0.0 0.00 0.00 0.00 88 1015.7
20260505100505 47 323 0.0 0.0 0.00 0.00 0.00 88 1015.8
20260505100022 47 323 0.0 0.0 0.00 0.00 0.00 88 1015.8
20260505095504 47 323 0.0 0.0 0.00 0.00 0.00 88 1015.7
20260505095008 47 323 0.0 0.0 0.00 0.00 0.00 87 1015.7
20260505094517 47 323 0.0 0.0 0.00 0.00 0.00 87 1015.7
20260505094006 47 323 0.0 0.0 0.00 0.00 0.00 87 1015.7
20260505093510 48 323 0.0 0.0 0.00 0.00 0.00 86 1015.6
20260505093025 48 323 0.0 0.0 0.00 0.00 0.00 86 1015.7
20260505092507 48 323 0.0 0.0 0.00 0.00 0.00 86 1015.8
20260505092013 48 323 0.0 0.0 0.00 0.00 0.00 86 1015.9
20260505091530 48 323 0.0 0.0 0.00 0.00 0.00 86 1016.0
20260505091009 48 323 0.0 0.0 0.00 0.00 0.00 86 1016.2
20260505090508 48 323 0.0 0.0 0.00 0.00 0.00 86 1016.1
20260505090026 48 323 0.0 0.0 0.00 0.00 0.00 86 1016.0
20260505085506 48 323 0.0 0.0 0.00 0.00 0.00 87 1016.1
20260505085004 48 323 0.0 0.0 0.00 0.00 0.00 87 1016.0
20260505084516 48 323 0.0 0.0 0.00 0.00 0.00 87 1016.1
20260505084007 48 323 0.0 0.0 0.00 0.00 0.00 87 1016.1
20260505083507 49 323 0.0 1.0 0.00 0.00 0.00 87 1016.2
20260505083027 48 323 0.0 1.0 0.00 0.00 0.00 86 1016.1
20260505082507 48 113 0.0 0.0 0.00 0.00 0.00 86 1016.1
20260505082008 49 113 0.0 1.0 0.00 0.00 0.00 86 1016.0
20260505081528 49 113 0.0 1.0 0.00 0.00 0.00 87 1015.8
20260505081011 49 113 0.0 1.0 0.00 0.00 0.00 86 1015.8
20260505080508 49 113 0.0 1.0 0.00 0.00 0.00 86 1015.8
20260505080033 49 234 0.0 0.0 0.00 0.00 0.00 86 1015.6
20260505075512 49 234 0.0 0.0 0.00 0.00 0.00 86 1015.5
20260505075012 50 234 0.0 0.0 0.00 0.00 0.00 86 1015.5
20260505074510 50 234 0.0 0.0 0.00 0.00 0.00 86 1015.5
20260505074005 50 234 0.0 0.0 0.00 0.00 0.00 86 1015.6
20260505073506 50 234 0.0 0.0 0.00 0.00 0.00 85 1015.5
20260505073029 50 234 0.0 0.0 0.00 0.00 0.00 85 1015.6
20260505072511 50 234 0.0 0.0 0.00 0.00 0.00 84 1015.5
20260505072007 50 234 0.0 0.0 0.00 0.00 0.00 84 1015.6
20260505071524 50 234 0.0 0.0 0.00 0.00 0.00 85 1015.7
20260505071006 51 234 0.0 0.0 0.00 0.00 0.00 85 1015.7
20260505070512 51 234 0.0 0.0 0.00 0.00 0.00 85 1015.6
20260505070026 51 234 0.0 0.0 0.00 0.00 0.00 85 1015.6
20260505065508 51 234 0.0 0.0 0.00 0.00 0.00 84 1015.6
20260505065012 51 234 0.0 0.0 0.00 0.00 0.00 83 1015.7
20260505064539 51 234 0.0 0.0 0.00 0.00 0.00 83 1015.7
20260505064010 51 234 0.0 0.0 0.00 0.00 0.00 84 1015.7
20260505063509 51 234 0.0 0.0 0.00 0.00 0.00 82 1015.7
20260505063029 52 234 0.0 1.0 0.00 0.00 0.00 82 1015.7
20260505062505 51 234 0.0 1.0 0.00 0.00 0.00 84 1015.8
20260505062006 51 242 0.0 1.0 0.00 0.00 0.00 85 1015.8
20260505061530 51 242 0.0 0.0 0.00 0.00 0.00 85 1015.8
20260505061007 51 242 0.0 1.0 0.00 0.00 0.00 85 1015.8
20260505060508 51 242 0.0 1.0 0.00 0.00 0.00 85 1015.8
20260505060007 51 157 0.0 0.0 0.00 0.00 0.00 85 1015.9
20260505055512 51 157 0.0 0.0 0.00 0.00 0.00 84 1015.9
20260505055003 51 157 0.0 0.0 0.00 0.00 0.00 84 1015.9
20260505054505 51 157 0.0 0.0 0.00 0.00 0.00 84 1015.9
20260505054003 52 157 0.0 0.0 0.00 0.00 0.00 84 1016.1
20260505053504 52 157 0.0 0.0 0.00 0.00 0.00 83 1016.0
20260505053010 52 158 0.0 0.0 0.00 0.00 0.00 82 1016.1
20260505052503 52 157 0.0 0.0 0.00 0.00 0.00 82 1016.0
20260505052006 52 157 0.0 0.0 0.00 0.00 0.00 82 1016.0
20260505051517 52 157 0.0 0.0 0.00 0.00 0.00 82 1016.0
20260505051009 53 157 0.0 0.0 0.00 0.00 0.00 81 1016.1
20260505050506 53 157 0.0 0.0 0.00 0.00 0.00 81 1016.0
20260505041514 56 233 0.0 0.0 0.00 0.00 0.00 77 1016.1
20260505041006 56 233 0.0 0.0 0.00 0.00 0.00 73 1016.1
20260505040506 56 233 0.0 1.0 0.00 0.00 0.00 75 1016.1
20260505040018 56 233 0.0 1.0 0.00 0.00 0.00 75 1016.1
20260505035507 56 233 0.0 1.0 0.00 0.00 0.00 74 1016.1
20260505035007 56 233 0.0 1.0 0.00 0.00 0.00 73 1016.2
20260505034526 56 234 0.0 0.0 0.00 0.00 0.00 74 1016.3
20260505034011 56 234 0.0 0.0 0.00 0.00 0.00 76 1016.3
20260505033503 56 234 0.0 0.0 0.00 0.00 0.00 77 1016.3
20260505033006 56 234 0.0 0.0 0.00 0.00 0.00 77 1016.3
20260505032503 56 234 0.0 1.0 0.00 0.00 0.00 77 1016.3
20260505032003 56 234 0.0 1.0 0.00 0.00 0.00 75 1016.3
20260505031526 56 234 0.0 1.0 0.00 0.00 0.00 77 1016.3
20260505031003 56 234 0.0 0.0 0.00 0.00 0.00 78 1016.3
20260505030504 56 234 0.0 1.0 0.00 0.00 0.00 77 1016.3
20260505030015 56 234 0.0 1.0 0.00 0.00 0.00 76 1016.4
20260505025504 56 234 0.0 0.0 0.00 0.00 0.00 77 1016.3
20260505025008 56 234 0.0 0.0 0.00 0.00 0.00 76 1016.3
20260505024531 56 234 0.0 0.0 0.00 0.00 0.00 76 1016.3
20260505024007 56 234 0.0 0.0 0.00 0.00 0.00 75 1016.3
20260505023508 57 234 0.0 0.0 0.00 0.00 0.00 74 1016.3
20260505023025 57 234 0.0 0.0 0.00 0.00 0.00 73 1016.3
20260505022508 57 234 0.0 0.0 0.00 0.00 0.00 72 1016.3
20260505022003 58 234 0.0 0.0 0.00 0.00 0.00 72 1016.2
20260505021505 58 234 0.0 0.0 0.00 0.00 0.00 71 1016.2
20260505021006 58 234 0.0 0.0 0.00 0.00 0.00 71 1016.2
20260505020503 59 234 0.0 0.0 0.00 0.00 0.00 71 1016.2
20260505020027 59 234 0.0 0.0 0.00 0.00 0.00 70 1016.1
20260505015504 59 234 0.0 0.0 0.00 0.00 0.00 69 1016.1
20260505015007 59 234 0.0 0.0 0.00 0.00 0.00 67 1016.0
20260505014527 60 234 0.0 0.0 0.00 0.00 0.00 67 1015.9
20260505014008 60 234 0.0 0.0 0.00 0.00 0.00 66 1015.9
20260505013509 61 234 0.0 0.0 0.00 0.00 0.00 66 1015.8
20260505013024 61 234 0.0 0.0 0.00 0.00 0.00 64 1015.8
20260505012509 62 234 0.0 0.0 0.00 0.00 0.00 63 1015.7
20260505012009 62 234 0.0 0.0 0.00 0.00 0.00 63 1015.7
20260505011531 62 234 0.0 0.0 0.00 0.00 0.00 61 1015.8
20260505011010 63 234 0.0 0.0 0.00 0.00 0.00 60 1015.7
20260505010513 63 234 0.0 0.0 0.00 0.00 0.00 58 1015.6
20260505010009 64 234 0.0 0.0 0.00 0.00 0.00 57 1015.5
20260505005503 65 234 0.0 0.0 0.00 0.00 0.00 56 1015.5
20260505005004 65 234 0.0 0.0 0.00 0.00 0.00 54 1015.5
20260505004529 66 234 0.0 0.0 0.00 0.00 0.00 54 1015.5
20260505004003 67 234 0.0 0.0 0.00 0.00 0.00 52 1015.5
20260505003507 67 234 0.0 0.0 0.00 0.00 0.00 52 1015.4
20260505003020 68 234 0.0 0.0 0.00 0.00 0.00 50 1015.3
20260505002509 69 234 0.0 0.0 0.00 0.00 0.00 50 1015.3
20260505002012 69 234 0.0 1.0 0.00 0.00 0.00 49 1015.2
20260505001524 70 234 0.0 1.0 0.00 0.00 0.00 46 1015.3
20260505001014 70 234 0.0 1.0 0.00 0.00 0.00 46 1015.3
20260505000513 71 234 0.0 1.0 0.00 0.00 0.00 44 1015.2
20260505000039 71 157 0.0 2.0 0.00 0.00 0.00 44 1015.3
20260504235510 71 167 0.0 2.0 0.00 0.00 0.00 44 1015.3
20260504235010 72 163 0.0 2.0 0.00 0.00 0.00 43 1015.3
20260504234507 72 158 0.0 3.0 0.00 0.00 0.00 43 1015.3
20260504234003 72 198 0.0 3.0 0.00 0.00 0.00 42 1015.2
20260504233503 72 152 0.0 2.0 0.00 0.00 0.00 42 1015.3
20260504233013 73 165 0.0 3.0 0.00 0.00 0.00 42 1015.3
20260504232507 73 262 1.0 3.0 0.00 0.00 0.00 41 1015.3
20260504232007 73 212 1.0 4.0 0.00 0.00 0.00 41 1015.3
20260504231518 73 153 1.0 4.0 0.00 0.00 0.00 41 1015.3
20260504231009 73 208 1.0 4.0 0.00 0.00 0.00 40 1015.3
20260504230506 74 127 0.0 4.0 0.00 0.00 0.00 40 1015.1
20260504230022 74 167 0.0 5.0 0.00 0.00 0.00 40 1015.2
20260504225507 74 226 1.0 5.0 0.00 0.00 0.00 39 1015.3
20260504225015 74 288 1.0 4.0 0.00 0.00 0.00 41 1015.2
20260504224525 75 207 0.0 4.0 0.00 0.00 0.00 40 1015.2
20260504224014 75 219 1.0 4.0 0.00 0.00 0.00 40 1015.2
20260504223511 76 142 0.0 3.0 0.00 0.00 0.00 41 1015.1
20260504223010 76 165 1.0 3.0 0.00 0.00 0.00 39 1015.2
20260504222502 76 136 0.0 4.0 0.00 0.00 0.00 40 1015.2
20260504222006 76 236 1.0 4.0 0.00 0.00 0.00 37 1015.3
20260504221515 76 118 1.0 3.0 0.00 0.00 0.00 38 1015.1
20260504221008 77 213 2.0 4.0 0.00 0.00 0.00 36 1015.1
20260504220510 77 271 1.0 4.0 0.00 0.00 0.00 35 1015.2
20260504220020 77 6 1.0 4.0 0.00 0.00 0.00 35 1015.0
20260504215507 77 131 1.0 6.0 0.00 0.00 0.00 35 1015.0
20260504215009 78 136 2.0 6.0 0.00 0.00 0.00 36 1015.0
20260504214524 78 251 1.0 6.0 0.00 0.00 0.00 36 1015.0
20260504214009 78 150 1.0 8.0 0.00 0.00 0.00 35 1015.0
20260504213514 78 155 2.0 10.0 0.00 0.00 0.00 35 1015.1
20260504213025 79 190 4.0 10.0 0.00 0.00 0.00 33 1015.0
20260504212515 79 220 0.0 6.0 0.00 0.00 0.00 32 1014.9
20260504212011 80 309 2.0 3.0 0.00 0.00 0.00 32 1014.9
20260504211513 80 125 1.0 4.0 0.00 0.00 0.00 31 1014.9